User: anonymous   Login
Location: Bay Ridge
(40.6340°N, 74.0146°W)
Time: 08:52:40
(UTC+00:00)
Language:

Cosmos 2100 Rocket - Orbit

View from above orbital plane
View from above orbital plane
View from above satellite
View from above satellite

Ground track
Ground track

The orbit data is extracted from the following two-line orbital elements,

1 20805U 90083B   20025.79462642  .00000090  00000-0  77020-4 0  9993
2 20805  82.9351  73.6833 0029302 251.6827 158.0875 13.75896042474398
Epoch (UTC): 25 January 2020 19:04:15
Eccentricity: 0.0029302
inclination: 82.9351°
perigee height: 957 km
apogee height: 1000 km
right ascension of ascending node: 73.6833°
argument of perigee: 251.6827°
revolutions per day: 13.75896042
mean anomaly at epoch: 158.0875°
orbit number at epoch: 47439

The dashed part of the orbit path shows where the satellite is in the earth's shadow,  

DLR